Cloud_Cover
100 100 100 68 28 5 13 1 15 1 4 10 0 1 100 100 47 0 0 0 0 0 26 81 70 100 95 98 100 100 12 3 4 26 96 93 6 5 5 5 5 81 77 100 100
100 100 100 78 11 2 62 2 1 12 27 7 0 2 100 100 22 0 0 0 0 0 5 100 100 100 100 100 96 95 46 11 100 100 87 79 35 5 4 0 5 5 5 100 86
100 100 100 98 18 24 32 1 68 19 22 0 0 69 55 62 0 0 0 0 0 0 5 80 100 100 100 100 100 100 26 100 100 96 46 5 5 5 5 0 5 8 68 85 27
100 100 100 81 88 30 38 100 60 49 17 6 1 100 6 20 0 0 0 0 0 0 1 19 100 100 100 99 100 100 46 97 96 18 5 5 5 5 5 5 5 16 6 10 100
100 97 32 92 14 2 7 82 81 60 17 3 5 100 36 3 0 0 0 0 0 0 5 14 100 100 100 100 100 100 100 100 88 70 5 5 0 5 23 14 73 66 24 17 100
100 64 11 5 0 0 1 1 17 94 6 43 60 95 52 0 0 0 0 0 0 0 0 34 98 100 100 100 100 100 100 100 100 100 99 68 32 5 100 96 69 72 5 71 39
100 88 13 4 5 0 3 5 59 100 0 2 39 100 52 0 0 0 0 0 0 0 0 2 100 100 100 100 100 100 94 100 100 100 100 100 100 79 100 70 0 6 59 5 10
100 98 12 2 5 4 3 0 97 11 1 5 59 100 49 0 0 0 0 0 0 0 0 0 86 100 100 100 100 100 100 100 100 100 100 80 86 100 100 100 4 0 1 99 21
100 46 18 5 5 10 7 5 94 5 0 13 70 99 86 4 20 2 5 0 0 0 0 0 3 100 100 100 96 100 100 100 100 100 100 90 93 100 100 97 5 0 0 89 100
96 49 24 11 5 14 5 5 5 5 35 11 100 100 47 26 5 5 2 0 0 0 0 0 0 55 100 100 100 100 100 100 100 100 100 41 87 100 100 100 100 24 5 44 90
56 51 22 95 23 5 5 67 15 32 78 21 68 99 7 99 100 24 5 2 0 0 0 0 0 0 3 100 100 100 100 100 100 100 28 63 5 100 100 100 100 73 5 5 91
22 100 100 92 89 90 56 24 79 72 98 100 100 5 83 100 100 100 40 2 0 0 0 0 0 0 0 0 4 66 100 100 100 100 6 100 44 57 100 100 100 100 6 5 0
34 100 100 92 55 5 49 100 89 100 93 100 98 70 100 100 93 100 100 99 3 0 0 0 0 0 0 0 0 0 50 100 100 100 92 24 100 100 100 100 100 100 74 5 1
100 100 100 76 7 96 99 55 82 100 100 100 100 99 100 100 100 100 100 100 98 16 0 0 0 0 0 0 0 0 5 20 100 100 100 28 88 100 100 100 100 100 6 5 5
100 93 5 11 100 100 61 78 100 100 100 100 82 97 100 100 100 100 100 100 100 100 40 0 0 0 0 0 0 0 0 1 3 91 100 100 12 100 100 100 100 100 100 21 5
25 69 5 5 65 16 52 100 99 100 100 22 5 5 5 38 100 100 100 100 100 100 100 99 22 5 0 0 0 0 2 0 0 1 21 100 100 100 100 100 100 100 100 15 65
5 5 6 97 45 6 18 15 7 4 0 5 5 5 5 12 82 100 100 100 95 100 100 100 100 26 5 2 0 0 0 5 31 81 17 23 100 100 100 100 100 100 100 6 4
4 5 5 5 4 0 2 15 0 2 5 5 5 5 74 84 91 100 99 100 100 100 100 100 100 100 100 68 5 5 0 5 64 32 39 100 17 36 100 100 100 100 100 57 5
45 5 5 0 1 5 2 5 37 5 5 2 5 10 9 7 17 44 92 84 100 100 100 100 100 100 100 100 100 18 1 2 23 3 36 0 0 5 6 21 39 76 100 100 29
84 100 100 18 5 1 4 15 5 5 0 0 5 5 32 5 13 5 13 42 44 65 71 89 86 60 65 91 82 5 4 18 32 21 5 0 0 1 5 5 5 71 29 80 100
5 6 20 73 23 9 6 12 5 2 5 4 5 29 18 5 5 5 3 17 5 5 5 66 76 3 4 4 3 4 12 5 9 22 96 44 24 100 97 9 20 5 5 5 28
5 12 5 5 53 50 27 5 5 5 17 37 5 5 5 17 5 5 5 6 2 0 0 1 2 8 3 0 81 88 37 96 100 23 53 8 1 100 100 100 62 5 5 5 5
15 18 5 28 88 74 65 19 9 72 97 100 15 64 80 93 100 97 98 82 99 89 82 75 4 5 0 0 2 32 95 100 100 100 71 93 10 12 9 5 95 38 5 47 100
19 47 94 100 100 71 72 5 71 100 100 100 100 100 100 100 100 100 100 100 100 100 100 74 2 0 0 0 3 49 56 100 100 59 86 49 2 0 23 35 48 4 4 22 94
22 44 96 98 86 93 88 56 100 100 100 100 100 95 100 100 100 100 100 100 100 100 100 4 11 3 0 0 0 0 0 6 26 5 85 26 23 5 5 5 5 5 0 0 6
100 100 100 100 100 100 100 100 100 100 100 100 100 100 100 100 100 100 100 100 91 14 3 2 5 0 0 0 0 0 0 0 0 5 3 0 3 5 2 5 0 5 5 2 0
100 100 100 98 100 100 100 100 98 100 71 100 100 100 100 100 100 100 100 100 85 100 81 35 5 15 76 0 8 20 4 0 0 0 0 0 0 5 5 1 5 5 5 1 5